Location: Terra Rouge Observatory
(46.0000°N, 62.7500°W)
Time: 06:02:09
(UTC-04:00)

Amateur Radio Satellites - All Passes

Search period start: 18 January 2017 05:32
Search period end: 19 January 2017 05:32
Location: Terra Rouge Observatory, 46.0000°N, 62.7500°W

Satellite Date Start Highest point End Downlink Frequencies (MHz)
Time Altitude Azimuth
Cubesat XI-IV 18 Jan 05:33:37 05:37:35 21° 92° (E) 05:41:32 437.490
AIST 2 18 Jan 05:38:28 05:42:21 35° 243° (WSW) 05:46:13 435.215
GONETS M04 18 Jan 05:38:34 05:45:29 25° 61° (ENE) 05:52:22
ITAMSAT 1 18 Jan 05:44:05 05:44:34 10° 308° (NW) 05:45:03 435.822/435.867
Cosmos 2491 18 Jan 05:44:34 05:46:50 11° 313° (NW) 05:49:07 435.465 / 435.565
NOAA 15 18 Jan 05:52:13 05:56:57 31° 96° (E) 06:01:38 137.62
BRITE-PL 18 Jan 05:55:16 06:00:09 47° 290° (WNW) 06:04:39 437.365/2234.400
HORYU 2 18 Jan 06:07:06 06:11:33 73° 286° (WNW) 06:15:59 437.375
GOMX 1 18 Jan 06:13:28 06:18:02 72° 287° (WNW) 06:22:19 467.674
ISS 18 Jan 06:13:48 06:16:23 22° 222° (SW) 06:18:57 145.825
Cosmos 2499 18 Jan 06:24:45 06:31:41 45° 73° (ENE) 06:38:23 435.465 / 435.565
CUTE-I 18 Jan 06:30:23 06:35:43 65° 102° (ESE) 06:41:00 437.470
O/OREOS (USA 219) 18 Jan 06:36:44 06:40:53 39° 107° (ESE) 06:45:03 437.305
CANX-2 18 Jan 06:42:00 06:44:28 15° 90° (E) 06:46:55 2200.000
LilacSat-2 18 Jan 06:43:51 06:47:41 67° 286° (WNW) 06:51:31 437.200
NOAA 18 18 Jan 06:54:42 07:00:06 57° 102° (ESE) 07:05:27 137.9125
AO-7 18 Jan 06:57:08 07:01:45 16° 320° (NW) 07:06:21 29.400- 29.500
SEEDS 18 Jan 06:59:17 07:01:17 13° 89° (E) 07:03:15 437.485
PHONESAT 2.4 18 Jan 07:01:00 07:02:03 12° 197° (SSW) 07:03:06 2401.200-2431.200
STRAND 1 18 Jan 07:02:01 07:07:01 57° 259° (W) 07:12:04 437.568
DOVE 4 18 Jan 07:06:40 07:10:49 49° 288° (WNW) 07:14:48 437.250
COMPASS 1 18 Jan 07:10:38 07:11:52 11° 88° (E) 07:13:05 437.405
Cubesat XI-IV 18 Jan 07:12:48 07:18:02 58° 290° (WNW) 07:23:16 437.490
CINEMA 3 18 Jan 07:17:41 07:21:45 49° 100° (E) 07:25:52 145.822/145.860
SO-50 18 Jan 07:22:19 07:23:57 12° 108° (ESE) 07:25:36 436.795
AAUSAT CUBESAT 2 18 Jan 07:24:21 07:26:01 12° 88° (E) 07:27:41 437.432
UWE-3 18 Jan 07:30:19 07:31:44 11° 88° (E) 07:33:09 435.000/436.395/437.385
NOAA 15 18 Jan 07:31:52 07:36:47 39° 294° (WNW) 07:41:40 137.62
HO-68 18 Jan 07:33:10 07:40:05 47° 99° (E) 07:46:56 435.675
GONETS M04 18 Jan 07:34:36 07:43:29 85° 264° (W) 07:52:20
RS-15 18 Jan 07:38:45 07:50:55 55° 40° (NE) 08:02:43 29.354- 29.394
CUTE 1.7 + AOD 2 18 Jan 07:47:43 07:52:00 61° 100° (E) 07:56:14 437.475
ZACube-1 18 Jan 07:54:43 07:56:43 13° 89° (E) 07:58:44 437.345
PRISM 18 Jan 08:00:50 08:04:39 36° 69° (ENE) 08:08:29 437.425
PCSat 18 Jan 08:01:37 08:04:32 14° 29° (NNE) 08:07:26 145.827
ANTELSAT 18 Jan 08:06:11 08:08:19 14° 60° (ENE) 08:10:27 437.575/2403.000
CUTE-I 18 Jan 08:11:25 08:15:17 21° 300° (WNW) 08:19:08 437.470
CANX-2 18 Jan 08:16:26 08:20:41 58° 287° (WNW) 08:24:54 2200.000
O/OREOS (USA 219) 18 Jan 08:16:39 08:20:24 26° 306° (NW) 08:24:10 437.305
Cosmos 2499 18 Jan 08:18:15 08:24:37 35° 274° (W) 08:30:49 435.465 / 435.565
CUBEBUG 2 18 Jan 08:30:18 08:34:35 74° 102° (ESE) 08:38:59 437.445
SEEDS 18 Jan 08:33:09 08:37:24 65° 286° (WNW) 08:41:37 437.485
Oscar 11 18 Jan 08:34:50 08:38:36 27° 95° (E) 08:42:20 145.826/435.025
NOAA 18 18 Jan 08:36:06 08:40:22 24° 300° (WNW) 08:44:37 137.9125
COMPASS 1 18 Jan 08:43:42 08:47:55 74° 285° (WNW) 08:52:06 437.405
CINEMA 3 18 Jan 08:55:51 08:58:33 17° 297° (WNW) 09:01:18 145.822/145.860
AAUSAT CUBESAT 2 18 Jan 08:57:46 09:01:57 68° 286° (WNW) 09:06:05 437.432
SO-50 18 Jan 08:58:58 09:03:42 85° 128° (SE) 09:08:23 436.795
DELFI C3 18 Jan 09:03:47 09:06:39 19° 92° (E) 09:09:29 145.870
UWE-3 18 Jan 09:04:22 09:08:41 77° 286° (WNW) 09:13:06 435.000/436.395/437.385
FUNcube-1 18 Jan 09:07:32 09:11:52 66° 101° (ESE) 09:16:16 145.935
UNISAT 6 18 Jan 09:11:32 09:15:43 60° 73° (ENE) 09:19:57 437.425
HO-68 18 Jan 09:21:08 09:27:41 40° 299° (WNW) 09:34:12 435.675
CUTE 1.7 + AOD 2 18 Jan 09:24:48 09:27:21 16° 298° (WNW) 09:29:54 437.475
TIGRISAT 18 Jan 09:25:39 09:29:54 79° 75° (ENE) 09:34:10 435.000
ZACube-1 18 Jan 09:29:07 09:33:26 69° 286° (WNW) 09:37:50 437.345
GONETS M04 18 Jan 09:33:19 09:38:55 19° 285° (WNW) 09:44:34
PRISM 18 Jan 09:36:45 09:40:02 22° 266° (W) 09:43:20 437.425
QB50P1 18 Jan 09:37:42 09:39:43 13° 60° (ENE) 09:41:43 145.935-145.965
ANTELSAT 18 Jan 09:40:15 09:44:29 69° 257° (WSW) 09:48:46 437.575/2403.000
POLYITAN 1 18 Jan 09:40:44 09:43:00 14° 61° (ENE) 09:45:14 437.675
QB50P2 18 Jan 09:41:36 09:44:06 16° 62° (ENE) 09:46:35 145.880/145.840
PCSat 18 Jan 09:43:53 09:49:13 52° 52° (NE) 09:54:31 145.827
RS-15 18 Jan 09:51:47 10:03:43 59° 246° (WSW) 10:15:13 29.354- 29.394
JAS-2 18 Jan 09:53:51 09:59:00 53° 68° (ENE) 10:04:40 435.910
POPSAT HIP 1 18 Jan 10:02:53 10:06:08 22° 65° (ENE) 10:09:25 437.405
HUMSAT D 18 Jan 10:03:07 10:07:16 46° 99° (E) 10:11:24 437.325/437.525
CUBEBUG 2 18 Jan 10:08:40 10:10:41 13° 299° (WNW) 10:12:45 437.445
Oscar 11 18 Jan 10:10:52 10:14:43 31° 292° (WNW) 10:18:34 145.826/435.025
DUCHIFAT 1 18 Jan 10:16:40 10:20:11 27° 66° (ENE) 10:23:41 145.980
NANOSAT C BR1 18 Jan 10:20:36 10:24:18 32° 68° (ENE) 10:28:02 145.865
DELFI C3 18 Jan 10:37:52 10:41:37 39° 290° (WNW) 10:45:20 145.870
SO-50 18 Jan 10:41:18 10:44:46 20° 325° (NW) 10:48:12 436.795
FUNcube-1 18 Jan 10:45:11 10:47:38 15° 298° (WNW) 10:50:06 145.935
UNISAT 6 18 Jan 10:50:38 10:52:51 14° 270° (W) 10:55:05 437.425
BUGSAT 1 18 Jan 11:01:38 11:05:10 29° 68° (ENE) 11:08:42 437.445
TIGRISAT 18 Jan 11:06:26 11:07:10 10° 272° (W) 11:07:54 435.000
QB50P1 18 Jan 11:10:45 11:14:56 71° 258° (WSW) 11:19:09 145.935-145.965
POLYITAN 1 18 Jan 11:14:08 11:18:17 64° 259° (W) 11:22:28 437.675
QB50P2 18 Jan 11:15:18 11:19:27 58° 259° (W) 11:23:37 145.880/145.840
BY70-1 18 Jan 11:19:46 11:23:13 86° 287° (WNW) 11:26:30 436.1900
Gurwin Techsat 1B 18 Jan 11:23:31 11:25:17 12° 53° (NE) 11:27:04 435.225
SPROUT 18 Jan 11:25:18 11:27:21 13° 89° (E) 11:29:23 437.525
Oscar 19 18 Jan 11:27:03 11:30:52 21° 60° (ENE) 11:34:42 437.125/150
PCSat 18 Jan 11:27:49 11:32:19 27° 251° (WSW) 11:36:47 145.827
CUBEBUG 1 18 Jan 11:29:14 11:33:06 31° 96° (E) 11:36:56 437.445
POPSAT HIP 1 18 Jan 11:37:50 11:41:43 37° 262° (W) 11:45:38 437.405
AISAT 18 Jan 11:39:06 11:42:47 26° 95° (E) 11:46:27 437.250
HUMSAT D 18 Jan 11:39:31 11:42:33 19° 296° (WNW) 11:45:36 437.325/437.525
JAS-2 18 Jan 11:40:28 11:44:35 22° 270° (W) 11:48:59 435.910
Cosmos 2491 18 Jan 11:49:31 11:56:20 24° 60° (ENE) 12:03:06 435.465 / 435.565
ESTCUBE 1 18 Jan 11:50:00 11:54:35 84° 102° (ESE) 11:59:07 437.505/2401.250
DUCHIFAT 1 18 Jan 11:52:06 11:55:46 30° 264° (W) 11:59:28 145.980
NANOSAT C BR1 18 Jan 11:56:34 12:00:03 25° 265° (W) 12:03:32 145.865
50 SAT 18 Jan 12:01:48 12:04:59 29° 97° (E) 12:08:08 437.505
CUSAT 1 18 Jan 12:07:50 12:11:28 14° 51° (NE) 12:15:07 437.405
RS-15 18 Jan 12:08:30 12:13:13 13° 269° (W) 12:17:53 29.354- 29.394
VELOX 1 18 Jan 12:12:13 12:16:32 53° 100° (E) 12:20:50 145.980
AO-7 18 Jan 12:23:09 12:28:18 18° 42° (NE) 12:33:29 29.400- 29.500
BUGSAT 1 18 Jan 12:37:07 12:40:33 26° 265° (W) 12:43:58 437.445
DX 1 18 Jan 12:52:32 12:56:53 69° 103° (ESE) 13:01:11 434.975-435.025
UKube-1 18 Jan 12:56:37 13:00:52 56° 101° (E) 13:05:05 .
Gurwin Techsat 1B 18 Jan 12:59:00 13:04:16 69° 72° (ENE) 13:09:34 435.225
SPROUT 18 Jan 12:59:29 13:03:42 63° 287° (WNW) 13:07:54 437.525
TISAT 1 18 Jan 13:01:08 13:04:16 20° 93° (E) 13:07:24 437.305
Oscar 19 18 Jan 13:04:36 13:09:45 61° 259° (WSW) 13:14:55 437.125/150
CUBEBUG 1 18 Jan 13:05:36 13:09:19 28° 294° (WNW) 13:12:59 437.445
AISAT 18 Jan 13:15:19 13:19:17 34° 292° (WNW) 13:23:14 437.250
ESTCUBE 1 18 Jan 13:28:41 13:30:43 13° 302° (WNW) 13:32:46 437.505/2401.250
AIST 1 18 Jan 13:30:05 13:33:34 24° 88° (E) 13:37:03
50 SAT 18 Jan 13:35:22 13:38:02 20° 294° (WNW) 13:40:41 437.505
ITAMSAT 1 18 Jan 13:42:34 13:47:18 38° 66° (ENE) 13:52:05 435.822/435.867
Cosmos 2491 18 Jan 13:45:32 13:54:21 86° 264° (W) 14:03:11 435.465 / 435.565
CUSAT 1 18 Jan 13:47:33 13:55:17 53° 72° (ENE) 14:02:47 437.405
VELOX 1 18 Jan 13:49:37 13:52:36 18° 298° (WNW) 13:55:35 145.980
YUBILEINY 18 Jan 13:55:36 14:03:50 47° 88° (E) 14:12:08 435.215
BEESAT 18 Jan 14:07:43 14:11:30 23° 93° (E) 14:15:14 436.000
SWISSCUBE 18 Jan 14:08:56 14:12:57 26° 94° (E) 14:16:56 437.505
AO-7 18 Jan 14:11:18 14:19:31 64° 65° (ENE) 14:27:47 29.400- 29.500
DANDE 18 Jan 14:13:14 14:19:52 34° 68° (ENE) 14:27:13 436.750
MOZHAYETS 4 18 Jan 14:26:28 14:27:30 11° 87° (E) 14:28:32
DX 1 18 Jan 14:30:10 14:32:32 14° 300° (WNW) 14:34:52 434.975-435.025
UKube-1 18 Jan 14:33:41 14:36:29 17° 299° (WNW) 14:39:14 .
TISAT 1 18 Jan 14:36:10 14:40:03 39° 290° (WNW) 14:43:56 437.305
Gurwin Techsat 1B 18 Jan 14:41:14 14:44:44 18° 270° (W) 14:48:14 435.225
AO-85 18 Jan 14:42:14 14:46:54 68° 123° (ESE) 14:51:14 145.980
Cosmos 2504 18 Jan 14:43:44 14:52:02 51° 90° (E) 14:59:52 435.465 / 435.565
O/OREOS (USA 219) 18 Jan 15:05:32 15:08:28 17° 49° (NE) 15:11:23 437.305
AIST 1 18 Jan 15:07:00 15:10:59 34° 286° (WNW) 15:14:59
ITUPSAT 1 18 Jan 15:08:26 15:13:17 82° 104° (ESE) 15:18:05 437.325
ITAMSAT 1 18 Jan 15:22:18 15:26:50 31° 264° (W) 15:31:24 435.822/435.867
KKS-1 18 Jan 15:22:32 15:24:23 12° 89° (E) 15:26:13 437.445
M-CUBED/EXP-1 PRIME 18 Jan 15:28:41 15:29:32 11° 95° (E) 15:30:21 437.505
BRITE-PL 18 Jan 15:29:08 15:34:18 37° 67° (ENE) 15:39:25 437.365/2234.400
CUSAT 1 18 Jan 15:29:49 15:37:02 40° 272° (W) 15:44:01 437.405
HORYU 2 18 Jan 15:32:39 15:35:30 17° 61° (ENE) 15:38:21 437.375
NOAA 15 18 Jan 15:39:36 15:40:58 11° 52° (NE) 15:42:20 137.62
Cosmos 2491 18 Jan 15:44:14 15:49:51 19° 285° (WNW) 15:55:30 435.465 / 435.565
BEESAT 18 Jan 15:44:54 15:49:29 45° 291° (WNW) 15:54:02 436.000
GOMX 1 18 Jan 15:46:15 15:50:23 23° 64° (ENE) 15:54:24 467.674
SWISSCUBE 18 Jan 15:46:22 15:50:51 40° 292° (WNW) 15:55:18 437.505
SO-50 18 Jan 15:48:11 15:52:00 25° 39° (NE) 15:55:45 436.795
YUBILEINY 18 Jan 15:52:23 16:00:42 44° 289° (WNW) 16:09:06 435.215
DANDE 18 Jan 15:55:34 16:02:55 63° 265° (W) 16:11:07 436.750
MOZHAYETS 4 18 Jan 16:00:38 16:05:19 89° 270° (W) 16:09:58
AO-7 18 Jan 16:05:28 16:12:46 33° 265° (W) 16:20:08 29.400- 29.500
AUBIESAT-1 18 Jan 16:05:40 16:08:31 24° 101° (E) 16:11:16 437.475
CUTE-I 18 Jan 16:16:41 16:20:34 21° 60° (ENE) 16:24:27 437.470
STARS 18 Jan 16:20:52 16:24:21 23° 94° (E) 16:27:49 437.465
HO-68 18 Jan 16:23:10 16:24:59 11° 42° (NE) 16:26:48 435.675
AO-85 18 Jan 16:24:13 16:27:41 21° 321° (NW) 16:30:58 145.980
BEESAT 2 18 Jan 16:24:52 16:25:38 10° 108° (ESE) 16:26:24 435.950
DOVE 4 18 Jan 16:36:59 16:41:05 26° 66° (ENE) 16:44:59 437.250
Cosmos 2504 18 Jan 16:37:36 16:45:35 40° 289° (WNW) 16:53:12 435.465 / 435.565
CUBESAT XI-V 18 Jan 16:40:18 16:44:44 39° 97° (E) 16:49:05 437.345
O/OREOS (USA 219) 18 Jan 16:43:53 16:48:22 70° 248° (WSW) 16:52:51 437.305
NOAA 18 18 Jan 16:44:46 16:48:56 23° 59° (ENE) 16:53:06 137.9125
ITUPSAT 1 18 Jan 16:47:52 16:50:28 15° 302° (WNW) 16:53:03 437.325
KKS-1 18 Jan 16:57:02 17:01:27 73° 287° (WNW) 17:05:51 437.445
Cubesat XI-IV 18 Jan 16:57:42 17:02:41 43° 68° (ENE) 17:07:43 437.490
M-CUBED/EXP-1 PRIME 18 Jan 17:01:04 17:04:24 48° 294° (WNW) 17:07:36 437.505
HORYU 2 18 Jan 17:07:17 17:11:37 58° 258° (WSW) 17:15:59 437.375
BRITE-PL 18 Jan 17:07:25 17:12:41 38° 264° (W) 17:17:57 437.365/2234.400
NOAA 15 18 Jan 17:14:30 17:19:43 64° 71° (ENE) 17:24:59 137.62
BEESAT 3 18 Jan 17:18:58 17:22:51 86° 124° (SE) 17:26:50 437.485
GOMX 1 18 Jan 17:22:46 17:28:06 57° 260° (W) 17:33:16 467.674
LilacSat-2 18 Jan 17:27:44 17:31:29 83° 76° (ENE) 17:35:18 437.200
SO-50 18 Jan 17:28:20 17:32:45 54° 239° (WSW) 17:37:06 436.795
CANX-2 18 Jan 17:37:27 17:39:57 15° 62° (ENE) 17:42:28 2200.000
MOZHAYETS 4 18 Jan 17:39:52 17:41:46 12° 302° (WNW) 17:43:39
AUBIESAT-1 18 Jan 17:40:10 17:42:53 22° 299° (WNW) 17:45:31 437.475
DANDE 18 Jan 17:41:05 17:44:30 14° 282° (WNW) 17:48:04 436.750
SEEDS 18 Jan 17:53:42 17:55:46 13° 60° (ENE) 17:57:52 437.485
CUTE-I 18 Jan 17:54:53 18:00:09 63° 259° (WSW) 18:05:26 437.470
STARS 18 Jan 17:56:46 18:00:49 38° 291° (WNW) 18:04:51 437.465
BEESAT 2 18 Jan 17:58:48 18:02:45 84° 308° (NW) 18:06:47 435.950
COMPASS 1 18 Jan 18:04:04 18:05:30 12° 59° (ENE) 18:06:57 437.405
HO-68 18 Jan 18:04:12 18:10:57 46° 63° (ENE) 18:17:44 435.675
DOVE 4 18 Jan 18:13:48 18:18:35 42° 262° (W) 18:23:07 437.250
AAUSAT CUBESAT 2 18 Jan 18:17:19 18:19:02 12° 60° (ENE) 18:20:46 437.432
CUBESAT XI-V 18 Jan 18:18:02 18:21:55 26° 295° (WNW) 18:25:46 437.345
CINEMA 3 18 Jan 18:21:23 18:25:47 62° 74° (ENE) 18:30:01 145.822/145.860
NOAA 18 18 Jan 18:23:42 18:29:09 62° 258° (WSW) 18:34:37 137.9125
UWE-3 18 Jan 18:30:02 18:31:52 13° 60° (ENE) 18:33:42 435.000/436.395/437.385
Cubesat XI-IV 18 Jan 18:38:24 18:42:56 28° 266° (W) 18:47:28 437.490
CUTE 1.7 + AOD 2 18 Jan 18:42:22 18:46:31 57° 73° (ENE) 18:50:44 437.475
GONETS M04 18 Jan 18:44:40 18:51:05 24° 78° (ENE) 18:57:32
ZACube-1 18 Jan 18:53:24 18:55:30 14° 61° (ENE) 18:57:36 437.345
NOAA 15 18 Jan 18:56:16 18:59:57 19° 269° (W) 19:03:40 137.62
BEESAT 3 18 Jan 18:58:34 19:01:02 16° 325° (NW) 19:03:32 437.485
Cosmos 2499 18 Jan 19:03:49 19:11:18 37° 86° (E) 19:18:19 435.465 / 435.565
STRAND 1 18 Jan 19:09:53 19:14:44 40° 98° (E) 19:19:33 437.568
CANX-2 18 Jan 19:11:08 19:15:19 61° 259° (W) 19:19:34 2200.000
SEEDS 18 Jan 19:26:42 19:30:54 70° 258° (WSW) 19:35:10 437.485
CUBEBUG 2 18 Jan 19:30:42 19:34:52 81° 77° (ENE) 19:39:02 437.445
Oscar 11 18 Jan 19:31:53 19:35:36 29° 67° (ENE) 19:39:22 145.826/435.025
COMPASS 1 18 Jan 19:36:13 19:40:24 83° 257° (WSW) 19:44:38 437.405
AIST 2 18 Jan 19:38:12 19:41:35 25° 114° (ESE) 19:45:00 435.215
BEESAT 2 18 Jan 19:38:50 19:41:11 15° 327° (NNW) 19:43:33 435.950
AAUSAT CUBESAT 2 18 Jan 19:49:44 19:53:54 77° 259° (WSW) 19:58:07 437.432
HO-68 18 Jan 19:52:03 19:58:44 40° 263° (W) 20:05:29 435.675
DELFI C3 18 Jan 19:52:08 19:54:41 16° 63° (ENE) 19:57:14 145.870
CINEMA 3 18 Jan 20:00:57 20:03:17 14° 270° (W) 20:05:35 145.822/145.860
UWE-3 18 Jan 20:03:39 20:07:47 71° 259° (W) 20:11:56 435.000/436.395/437.385
FUNcube-1 18 Jan 20:05:18 20:09:23 67° 74° (ENE) 20:13:31 145.935
CUTE 1.7 + AOD 2 18 Jan 20:20:22 20:22:44 15° 271° (W) 20:25:08 437.475
ZACube-1 18 Jan 20:27:11 20:31:17 65° 259° (W) 20:35:26 437.345
GONETS M04 18 Jan 20:38:09 20:46:52 81° 280° (W) 20:55:42
STRAND 1 18 Jan 20:49:22 20:53:46 29° 296° (WNW) 20:58:10 437.568
Cosmos 2499 18 Jan 20:56:01 21:04:12 52° 285° (WNW) 21:11:50 435.465 / 435.565
HUMSAT D 18 Jan 20:56:32 21:00:23 42° 71° (ENE) 21:04:19 437.325/437.525
UNISAT 6 18 Jan 21:03:04 21:03:55 10° 88° (E) 21:04:46 437.425
Oscar 11 18 Jan 21:07:55 21:11:42 29° 265° (W) 21:15:31 145.826/435.025
PRISM 18 Jan 21:14:38 21:18:32 40° 98° (E) 21:22:23 437.425
TIGRISAT 18 Jan 21:15:48 21:18:03 14° 90° (E) 21:20:20 435.000
AIST 2 18 Jan 21:15:57 21:19:52 40° 313° (NW) 21:23:51 435.215
ESTCUBE 1 18 Jan 21:17:42 21:19:55 14° 59° (ENE) 21:22:07 437.505/2401.250
DELFI C3 18 Jan 21:25:13 21:29:07 49° 261° (W) 21:33:03 145.870
ANTELSAT 18 Jan 21:29:41 21:32:58 20° 93° (E) 21:36:18 437.575/2403.000
AO-85 18 Jan 21:31:54 21:34:39 17° 36° (NE) 21:37:20 145.980
BY70-1 18 Jan 21:37:16 21:39:49 25° 68° (ENE) 21:42:33 436.1900
FUNcube-1 18 Jan 21:44:36 21:46:06 12° 272° (W) 21:47:38 145.935
RS-15 18 Jan 22:09:34 22:17:25 21° 97° (E) 22:25:26 29.354- 29.394
DX 1 18 Jan 22:18:07 22:18:57 10° 57° (ENE) 22:19:46 434.975-435.025
SPROUT 18 Jan 22:21:11 22:23:39 15° 61° (ENE) 22:26:06 437.525
CUBEBUG 1 18 Jan 22:27:14 22:31:16 35° 68° (ENE) 22:35:17 437.445
HUMSAT D 18 Jan 22:33:22 22:36:13 18° 268° (W) 22:39:06 437.325/437.525
UNISAT 6 18 Jan 22:36:46 22:41:11 85° 288° (WNW) 22:45:41 437.425
AISAT 18 Jan 22:38:29 22:42:25 32° 67° (ENE) 22:46:23 437.250
50 SAT 18 Jan 22:39:14 22:41:50 19° 66° (ENE) 22:44:28 437.505
GONETS M04 18 Jan 22:39:18 22:45:17 20° 303° (WNW) 22:51:19
JAS-2 18 Jan 22:43:16 22:49:59 45° 98° (E) 22:57:16 435.910
PRISM 18 Jan 22:50:30 22:53:35 21° 296° (WNW) 22:56:38 437.425
TIGRISAT 18 Jan 22:50:48 22:55:10 66° 286° (WNW) 22:59:37 435.000
ESTCUBE 1 18 Jan 22:51:33 22:56:05 81° 258° (WSW) 23:00:39 437.505/2401.250
QB50P1 18 Jan 22:54:01 22:56:33 16° 91° (E) 22:59:06 145.935-145.965
ISS 18 Jan 22:54:47 22:57:38 28° 140° (SE) 23:00:29 145.825
Cosmos 2499 18 Jan 22:57:17 22:59:23 11° 309° (NW) 23:01:26 435.465 / 435.565
POLYITAN 1 18 Jan 22:57:19 23:00:07 17° 92° (E) 23:02:54 437.675
QB50P2 18 Jan 22:58:20 23:01:20 19° 92° (E) 23:04:19 145.880/145.840
AIST 2 18 Jan 22:58:54 22:59:29 10° 335° (NNW) 23:00:04 435.215
ANTELSAT 18 Jan 23:05:41 23:09:52 44° 289° (WNW) 23:14:08 437.575/2403.000
BY70-1 18 Jan 23:08:09 23:10:15 17° 268° (W) 23:12:26 436.1900
VELOX 1 18 Jan 23:11:26 23:15:50 64° 73° (ENE) 23:20:16 145.980
AO-85 18 Jan 23:11:34 23:15:29 70° 237° (WSW) 23:19:21 145.980
POPSAT HIP 1 18 Jan 23:19:53 23:23:32 28° 96° (E) 23:27:10 437.405
DUCHIFAT 1 18 Jan 23:33:04 23:36:52 33° 97° (E) 23:40:41 145.980
NANOSAT C BR1 18 Jan 23:37:27 23:41:26 40° 98° (E) 23:45:24 145.865
DX 1 18 Jan 23:50:00 23:54:23 81° 75° (ENE) 23:58:47 434.975-435.025
UKube-1 18 Jan 23:53:04 23:57:20 65° 73° (ENE) 00:01:39 .
SPROUT 18 Jan 23:54:53 23:59:06 62° 259° (W) 00:03:20 437.525
TISAT 1 18 Jan 23:55:05 23:58:19 22° 65° (ENE) 00:01:32 437.305
BEESAT 3 18 Jan 23:56:46 23:59:34 18° 37° (NE) 00:02:21 437.485
YUBILEINY 19 Jan 00:02:34 00:09:48 27° 62° (ENE) 00:16:56 435.215
CUBEBUG 1 19 Jan 00:03:57 00:07:36 25° 266° (W) 00:11:15 437.445
50 SAT 19 Jan 00:11:38 00:14:52 31° 263° (W) 00:18:07 437.505
AISAT 19 Jan 00:15:02 00:18:53 28° 265° (W) 00:22:44 437.250
BUGSAT 1 19 Jan 00:15:34 00:19:16 34° 97° (E) 00:22:57 437.445
RS-15 19 Jan 00:15:51 00:27:41 76° 120° (ESE) 00:40:01 29.354- 29.394
UNISAT 6 19 Jan 00:16:05 00:17:13 11° 302° (WNW) 00:18:21 437.425
JAS-2 19 Jan 00:28:29 00:34:57 43° 294° (WNW) 00:41:59 435.910
QB50P1 19 Jan 00:28:32 00:32:38 53° 288° (WNW) 00:36:45 145.935-145.965
PCSat 19 Jan 00:28:43 00:33:12 27° 109° (ESE) 00:37:43 145.827
ISS 19 Jan 00:30:46 00:33:58 54° 338° (NNW) 00:37:11 145.825
POLYITAN 1 19 Jan 00:32:06 00:36:10 48° 289° (WNW) 00:40:15 437.675
QB50P2 19 Jan 00:33:19 00:37:21 44° 289° (WNW) 00:41:22 145.880/145.840
Cosmos 2504 19 Jan 00:34:33 00:39:43 19° 59° (ENE) 00:44:41 435.465 / 435.565
BEESAT 2 19 Jan 00:37:12 00:40:14 20° 38° (NE) 00:43:15 435.950
ITUPSAT 1 19 Jan 00:41:48 00:44:54 17° 60° (ENE) 00:48:00 437.325
VELOX 1 19 Jan 00:50:20 00:52:43 14° 270° (W) 00:55:08 145.980
POPSAT HIP 1 19 Jan 00:55:37 00:59:17 29° 293° (WNW) 01:02:56 437.405
Cosmos 2491 19 Jan 00:55:47 01:02:09 23° 78° (ENE) 01:08:32 435.465 / 435.565
DUCHIFAT 1 19 Jan 01:09:00 01:12:25 25° 294° (WNW) 01:15:50 145.980
AIST 1 19 Jan 01:10:50 01:15:08 74° 79° (E) 01:19:23
Gurwin Techsat 1B 19 Jan 01:13:21 01:17:27 22° 92° (E) 01:21:32 435.225
Oscar 19 19 Jan 01:13:42 01:18:34 39° 97° (E) 01:23:21 437.125/150
NANOSAT C BR1 19 Jan 01:13:45 01:16:55 21° 296° (WNW) 01:20:04 145.865
BEESAT 19 Jan 01:16:15 01:20:31 34° 67° (ENE) 01:24:50 436.000
SWISSCUBE 19 Jan 01:17:32 01:21:56 39° 68° (ENE) 01:26:22 437.505
TISAT 1 19 Jan 01:29:51 01:33:44 37° 262° (W) 01:37:39 437.305
MOZHAYETS 4 19 Jan 01:30:01 01:32:36 15° 60° (ENE) 01:35:12
DX 1 19 Jan 01:30:03 01:31:08 11° 272° (W) 01:32:13 434.975-435.025
UKube-1 19 Jan 01:31:40 01:33:49 13° 270° (W) 01:35:57 .
BEESAT 3 19 Jan 01:33:38 01:37:38 73° 238° (WSW) 01:41:36 437.485
BUGSAT 1 19 Jan 01:51:19 01:54:27 22° 295° (WNW) 01:57:36 437.445
ITAMSAT 1 19 Jan 01:56:00 01:56:30 10° 86° (E) 01:56:59 435.822/435.867
YUBILEINY 19 Jan 01:58:45 02:07:36 78° 265° (W) 02:16:20 435.215
ISS 19 Jan 02:07:59 02:10:54 29° 358° (N) 02:13:47 145.825
PCSat 19 Jan 02:11:02 02:16:19 52° 309° (NW) 02:21:38 145.827
AO-7 19 Jan 02:12:07 02:16:47 16° 86° (E) 02:21:26 29.400- 29.500
BEESAT 2 19 Jan 02:14:22 02:18:24 63° 238° (WSW) 02:22:23 435.950
M-CUBED/EXP-1 PRIME 19 Jan 02:14:37 02:18:26 30° 63° (ENE) 02:22:01 437.505
ITUPSAT 1 19 Jan 02:17:30 02:22:13 66° 257° (WSW) 02:27:00 437.325
AIST 2 19 Jan 02:20:16 02:20:45 10° 25° (NNE) 02:21:14 435.215
KKS-1 19 Jan 02:22:33 02:25:27 17° 61° (ENE) 02:28:20 437.445
Cosmos 2504 19 Jan 02:26:45 02:34:18 88° 262° (W) 02:41:29 435.465 / 435.565
RS-15 19 Jan 02:29:49 02:41:19 46° 327° (NNW) 02:53:08 29.354- 29.394
Cosmos 2491 19 Jan 02:49:13 02:57:56 81° 279° (W) 03:06:44 435.465 / 435.565
AIST 1 19 Jan 02:51:07 02:52:03 11° 278° (W) 02:52:58
CUSAT 1 19 Jan 02:52:04 02:56:40 35° 87° (E) 03:02:29 437.405
AUBIESAT-1 19 Jan 02:52:23 02:56:36 58° 68° (ENE) 03:00:33 437.475
Gurwin Techsat 1B 19 Jan 02:52:33 02:57:44 55° 290° (WNW) 03:02:54 435.225
Oscar 19 19 Jan 02:53:16 02:57:46 31° 296° (WNW) 03:02:13 437.125/150
BEESAT 19 Jan 02:54:11 02:58:19 29° 264° (W) 03:02:30 436.000
SWISSCUBE 19 Jan 02:55:52 02:59:49 26° 265° (W) 03:03:49 437.505
MOZHAYETS 4 19 Jan 03:04:39 03:09:12 72° 259° (W) 03:13:49
STARS 19 Jan 03:19:40 03:23:25 28° 66° (ENE) 03:27:10 437.465
DANDE 19 Jan 03:27:14 03:29:38 15° 79° (E) 03:32:25 436.750
ITAMSAT 1 19 Jan 03:31:35 03:36:49 77° 104° (ESE) 03:42:02 435.822/435.867
ISS 19 Jan 03:44:43 03:47:51 45° 18° (NNE) 03:51:00 145.825
CUBESAT XI-V 19 Jan 03:45:36 03:50:08 50° 71° (ENE) 03:54:43 437.345
PHONESAT 2.4 19 Jan 03:47:47 03:49:23 16° 169° (S) 03:50:58 2401.200-2431.200
M-CUBED/EXP-1 PRIME 19 Jan 03:48:57 03:52:50 30° 258° (WSW) 03:56:32 437.505
AIST 2 19 Jan 03:56:23 04:00:24 39° 46° (NE) 04:04:23 435.215
KKS-1 19 Jan 03:57:11 04:01:34 58° 259° (W) 04:05:59 437.445
YUBILEINY 19 Jan 03:57:49 04:02:50 17° 287° (WNW) 04:07:51 435.215
PCSat 19 Jan 03:58:09 04:01:01 14° 331° (NNW) 04:03:54 145.827
AO-7 19 Jan 04:02:33 04:10:59 74° 107° (ESE) 04:19:18 29.400- 29.500
Cosmos 2504 19 Jan 04:22:09 04:26:26 17° 284° (WNW) 04:30:36 435.465 / 435.565
AUBIESAT-1 19 Jan 04:28:45 04:31:14 15° 262° (W) 04:33:39 437.475
CUSAT 1 19 Jan 04:33:38 04:38:30 38° 293° (WNW) 04:44:40 437.405
RS-15 19 Jan 04:47:15 04:57:54 32° 1° (N) 05:08:33 29.354- 29.394
Cosmos 2491 19 Jan 04:50:21 04:56:21 20° 303° (WNW) 05:02:23 435.465 / 435.565
GONETS M04 19 Jan 04:50:36 04:54:56 14° 51° (NE) 04:59:14
STRAND 1 19 Jan 04:53:03 04:54:52 12° 54° (NE) 04:56:41 437.568
Cosmos 2499 19 Jan 04:53:28 04:56:34 13° 54° (NE) 04:59:36 435.465 / 435.565
STARS 19 Jan 04:55:47 04:59:41 31° 263° (W) 05:03:36 437.465
HORYU 2 19 Jan 04:56:04 04:59:31 22° 93° (E) 05:02:57 437.375
DANDE 19 Jan 05:07:46 05:11:30 48° 288° (WNW) 05:16:31 436.750
BRITE-PL 19 Jan 05:09:57 05:14:59 67° 101° (E) 05:19:35 437.365/2234.400
ITAMSAT 1 19 Jan 05:12:22 05:15:41 17° 302° (WNW) 05:19:00 435.822/435.867
Cubesat XI-IV 19 Jan 05:13:50 05:16:28 14° 88° (E) 05:19:06 437.490
ISS 19 Jan 05:21:16 05:24:19 37° 217° (SW) 05:27:22 145.825
PHONESAT 2.4 19 Jan 05:21:18 05:23:04 19° 186° (S) 05:24:52 2401.200-2431.200
GOMX 1 19 Jan 05:22:49 05:26:57 34° 95° (E) 05:30:52 467.674
CUBESAT XI-V 19 Jan 05:24:22 05:27:47 20° 269° (W) 05:31:15 437.345
